Regional Weather Roundup
Issued by NWS Newport/Morehead, NC

Current Version | Previous Version | Graphics & Text | Print | Product List | Glossary On
Versions: 1 2 3 4 5 6 7 8 9 10 11 12 13 14 15 16 17 18 19 20 21 22 23 24 25 26 27 28 29 30 31 32 33 34 35 36 37 38 39 40 41 42 43 44 45 46 47 48 49 50
000 ASUS42 KMHX 290925 RWRMHX WEATHER ROUNDUP FOR EASTERN NORTH CAROLINA NATIONAL WEATHER SERVICE NEWPORT/MOREHEAD CITY NC 500 AM EDT THU SEP 29 2016 NOTE: "FAIR" INDICATES FEW OR NO CLOUDS BELOW 12,000 FEET WITH NO SIGNIFICANT WEATHER AND/OR OBSTRUCTIONS TO VISIBILITY NCZ015>017-031-032-045>047-102-103-291000- NORTH COAST CITY SKY/WX TMP DP RH WIND PRES REMARKS EDENTON PTCLDY 73 73 100 E3 30.00F ELIZABETH CITY CLEAR 72 71 97 E5 30.00F KITTY HAWK SUNNY 74 74 100 CALM 29.99F MANTEO CLEAR 73 73 100 SE3 30.00F $$ NCZ045>047-081-094-103-104-291000- CENTRAL COAST CITY SKY/WX TMP DP RH WIND PRES REMARKS FRISCO MOCLDY 75 72 90 E5 29.99F $$ NCZ095-097-098-100-101-291000- SOUTHERN COAST CITY SKY/WX TMP DP RH WIND PRES REMARKS BEAUFORT CLEAR 76 74 93 CALM 29.97F CEDAR ISLAND NOT AVBL JACKSONVILLE CLEAR 73 71 93 CALM 29.96S PINEY ISLAND SUNNY N/A N/A N/A CALM 29.97F WILMINGTON PTCLDY 71 69 93 CALM 29.95S $$ NCZ011>013-027>030-043-044-078>080-089-090>093-098-291000- COASTAL PLAIN CITY SKY/WX TMP DP RH WIND PRES REMARKS AHOSKIE CLOUDY 70 70 99 CALM 30.00S FOG CLINTON HVY RAIN 66 66 100 NW7 30.01R ELIZABETHTOWN CLOUDY 69 66 90 N6 29.97R GOLDSBORO NOT AVBL GREENVILLE CLOUDY 70 70 100 N3 30.00F HAVELOCK CLEAR 72 70 93 SE3 29.98F KENANSVILLE MOCLDY 68 64 88 NE5 29.97S KINSTON MOCLDY 70 66 88 NE5 29.99S NEW BERN CLEAR 69 68 96 CALM 29.98F RICHLANDS PTCLDY 69 69 100 CALM 29.97F ROCKY MOUNT CLOUDY 67 67 100 CALM 29.99R WASHINGTON CLEAR 69 68 98 CALM 29.98F WHITEVILLE PTCLDY 74 72 93 E3 29.93S $$ AMZ130-135-150-152-154-156-158-170-250-252-270-ANZ085-086-088-633-658-670-291000- MARINE OBSERVATIONS STATION/POSITION TIME TEMP WIND PRES WAVE SWELL AIR SEA DIR/SP/G HT/PER HT/PER (UTC) (F) (DEG/KT/KT) (MB) (FT/S) (FT/S) CHESAPEAKE LIGHT NOT AVBL 64 E VA BEACH 0850 76 75 100/ 6/ 6 1016.2 5/ 8 5/ 8 DUCK 0900 76 76 110/ 7/ 8 1015.4 2 E DUCK 0841 77 N/A 4/ 8 2/11 OREGON INLET 0900 76 78 90/ 4/ 5 1015.5 13E OREGON INLT 0900 77 N/A 4/ 8 3/ 8 HATTERAS CG 0900 77 79 80/ 2/ 5 1014.9 DIAMOND BUOY 0850 80 80 170/ 10/ 12 1015.3 3/11 3/11 CAPE LOOKOUT 0900 79 150/ 3/ 4 1014.6 BEAUFORT LAB 0900 78 77 110/ 2/ 3 1014.2 30 SE NEW RVR IN 0908 81 83 180/ 6/ 10 1014.7 30 SE NEW RVR IN 0855 83 N/A 3/ 6 2/11 27 SE WRIGHTSVLE 0908 81 81 180/ 8/ 10 1014.7 5 SE WRIGHTSVLE 0908 81 81 180/ 10/ 14 1015.4 225 S CAPE HAT 0850 80 83 180/ 14/ 16 1015.9 4/ 6 2/11 41 SE CHARLESTON 0850 81 82 220/ 12/ 14 1013.3 3/ 4 2/11 $$

USA.gov is the U.S. government's official web portal to all federal, state and local government web resources and services.